Location: Drocourt
(49.0571°N, 1.7669°E)
Time: 14:08:44
(UTC+00:00)

Cosmos 2058 Rocket - Pass Details

Date: 09 February 2023
Orbit: 610 x 637 km, 82.5° (Epoch: 21 March)

Event Time Altitude Azimuth Distance (km) Brightness Sun altitude
Rises 18:15:28 0° 347° (NNW) 2,907 6.6 -12.3°
Reaches altitude 10° 18:17:43 10° 344° (NNW) 2,000 5.8 -12.7°
Maximum altitude 18:22:05 62° 265° (W) 707 3.6 -13.4°
Drops below altitude 10° 18:26:28 10° 184° (S) 2,001 5.8 -14.1°
Sets 18:28:42 0° 181° (S) 2,908 6.6 -14.5°
